Simultaneous Nadir Overpasses (SNOs) Predictions

Prediction of SNOs between GOES-17 and TERRA Satellite Orbit:

Table of predicted SNOs for the next 14.0 days since TLE Epoch: 2/14/2025
Index Date Time (GOES-17) GOES-17 Lat,Lon TERRA Lat,Lon Distance(km) Time Diff (sec)
1 02/16/2025 16:27:51 -0.01,-104.23 0.04,-104.54 34.56 80
2 02/18/2025 16:11:49 -0.01,-104.01 -0.85,-100.03 453.32 80
3 02/19/2025 04:28:52 0.01,-103.96 -0.16,-104.82 97.99 80
4 02/21/2025 04:12:49 0.01,-103.73 0.71,-100.30 389.73 80
5 02/21/2025 16:29:45 -0.01,-103.68 0.26,-105.07 158.31 80
6 02/23/2025 16:13:42 -0.01,-103.45 -0.64,-100.56 329.39 80
7 02/24/2025 04:30:44 0.01,-103.39 -0.40,-105.34 221.61 80
8 02/26/2025 04:12:00 0.01,-103.17 0.48,-100.82 266.22 80
9 02/26/2025 16:31:36 -0.01,-103.11 0.48,-105.59 282.00 80
10 02/28/2025 16:15:31 -0.02,-102.88 -0.37,-101.06 206.46 80
